#timestamp,LO_Frequency,Hit,StdDev 
1561420815.0,286046999.7,N
1561420815.9,286046999.7,N
1561420835.8,286047002.8,Y
1561420855.6,286047002.5,P
1561420875.4,286047004.4,P
1561420895.3,286047004.0,N
1561420915.1,286047002.0,N
1561420916.0,286047002.0,N
1561420935.8,286047002.1,N
1561420955.7,286047001.6,N
1561420975.5,286047001.4,N
1561420995.3,286047004.1,Y
1561421015.2,286047002.6,P
1561421035.9,286047002.5,P
1561421055.7,286047000.2,N
1561421075.5,286046999.8,N
1561421095.4,286047002.1,N
1561421115.2,286047004.4,Y
1561421135.0,286047002.5,P
1561421135.9,286047002.5,P
1561421155.8,286047002.7,P
1561421175.6,286047000.1,N
1561421195.4,286047002.6,N
1561421215.3,286047002.2,N
1561421235.1,286047001.7,N
1561421255.8,286047003.1,Y
1561421275.7,286047002.0,P
1561421295.5,286047002.4,P
1561421315.3,286047002.5,P
1561421335.2,286047002.3,Y
1561421355.9,286047000.8,P
1561421375.7,286047001.1,N
1561421395.6,286047002.8,P
1561421415.4,286047000.2,N
1561421435.2,286046999.9,N
1561421455.1,286046999.9,N
1561421456.0,286046999.9,N
1561421475.8,286046999.9,N
1561421495.6,286047002.8,N
1561421515.4,286047001.6,N
1561421535.3,286047001.8,N
1561421555.1,286047004.0,Y
1561421575.8,286047000.0,P
1561421595.7,286047004.1,P
1561421615.5,286047004.2,N
1561421635.3,286047003.7,N
1561421655.2,286047003.7,N
1561421675.9,286047004.1,N
1561421695.7,286047001.6,N
1561421715.6,286047004.1,N
1561421735.4,286047003.4,N
1561421755.2,286047004.9,Y
1561421775.1,286047002.1,P
1561421776.0,286047002.1,P
1561421795.8,286047002.6,P
1561421815.6,286047001.6,Y
1561421835.5,286047000.7,P
1561421855.3,286046999.9,N
1561421875.1,286047000.4,N
1561421895.9,286046999.9,N
1561421915.7,286047002.2,N
1561421935.5,286047001.8,N
1561421955.4,286047002.3,N
1561421975.2,286047001.8,N
1561421995.0,286047001.4,N
1561421995.9,286047001.4,N
1561422015.7,286047001.9,N
1561422035.6,286047001.5,N
1561422055.4,286047001.6,N
1561422075.2,286047001.8,N
1561422095.1,286047001.8,N
1561422096.0,286047001.8,N
1561422115.8,286047004.3,Y
1561422135.6,286047002.8,P
1561422155.5,286047002.7,P
1561422175.3,286047002.7,P
1561422195.1,286047002.0,Y
1561422215.9,286047000.6,P
1561422235.7,286047001.0,N
1561422255.5,286047000.2,N
1561422275.4,286047000.9,N
1561422295.2,286047002.8,Y
1561422315.0,286047000.9,P
1561422315.9,286047000.9,P
1561422335.8,286047001.2,P
1561422355.6,286046999.9,N
1561422375.4,286047000.0,N
1561422395.3,286047002.0,Y
1561422415.1,286047002.3,P
1561422416.0,286047002.3,N
1561422435.8,286047004.2,P
1561422455.7,286047004.0,Y
1561422475.5,286047002.8,P
1561422495.3,286047002.5,P
1561422515.2,286047001.6,P
1561422535.9,286047001.8,Y
1561422555.7,286047000.7,P
1561422575.6,286047000.7,N
1561422595.4,286047000.0,N
1561422615.2,286046999.8,N
1561422635.1,286047001.6,N
1561422636.0,286047001.6,N
1561422655.8,286047001.5,N
1561422675.6,286047001.6,N
1561422695.5,286047001.7,N
1561422715.3,286047001.5,N
1561422735.1,286047002.2,N
1561422755.8,286046999.7,N
1561422775.7,286047002.4,N
1561422795.5,286047002.7,Y
1561422815.3,286047000.6,P
1561422835.2,286047000.4,N
1561422855.0,286046999.9,N
1561422855.9,286046999.9,N
1561422875.7,286047000.0,N
1561422895.6,286046999.9,N
1561422915.4,286047002.7,Y
1561422935.2,286047002.8,P
1561422955.1,286047002.4,N
1561422956.0,286047002.4,N
1561422975.8,286047002.5,N
1561422995.6,286047002.1,N
1561423015.5,286047001.9,N
1561423035.3,286047001.6,N
1561423055.1,286047002.1,N
1561423075.9,286047001.9,N
1561423095.7,286046999.7,N
1561423115.5,286047000.2,N
1561423135.3,286047000.4,N
1561423155.2,286047000.2,N
1561423175.0,286047002.8,N
1561423175.9,286047002.8,N
1561423195.7,286047002.6,N
1561423215.6,286047002.0,N
1561423235.4,286047002.2,N
1561423255.2,286047004.3,Y
1561423275.1,286047002.3,P
1561423276.0,286047002.3,P
1561423295.8,286047002.0,P
1561423315.6,286047002.3,Y
1561423335.5,286046998.2,P
1561423355.3,286046998.3,N
1561423375.1,286046998.6,N
1561423395.9,286046998.6,N
1561423415.7,286046998.5,N
1561423435.5,286047000.8,N
1561423455.4,286047002.7,N
1561423475.2,286047002.1,N
1561423495.0,286047001.9,N
1561423495.9,286047001.9,N
1561423515.7,286047002.1,N
1561423535.6,286047002.5,N
1561423555.4,286047002.2,N
1561423575.2,286047003.1,N
1561423595.1,286047012.3,Y
1561423596.0,286047012.3,P
1561423615.8,286047009.5,N
1561423635.6,286047010.2,N
1561423655.5,286047010.7,N
1561423675.3,286047006.6,N
1561423695.1,286047004.9,N
1561423715.9,286047005.6,N
1561423735.7,286047005.5,N
1561423755.5,286047003.0,N
1561423775.4,286047003.2,N
1561423795.2,286047004.0,N
1561423815.0,286047004.4,N
1561423815.9,286047004.4,N
1561423835.7,286047001.8,N
1561423855.6,286047001.6,N
1561423875.4,286047001.4,N
1561423895.2,286047002.2,N
1561423915.1,286047002.4,N
1561423916.0,286047002.4,N
1561423935.8,286047002.2,N
1561423955.6,286047001.9,N
1561423975.5,286047001.5,N
1561423995.3,286047002.0,N
1561424015.1,286047001.4,N
1561424035.9,286047002.4,N
1561424055.7,286047002.1,N
1561424075.5,286047003.6,N
1561424095.3,286047004.1,N
1561424115.2,286047003.9,N
1561424135.0,286047004.2,N
1561424135.9,286047004.2,N
1561424155.7,286047004.4,N
1561424175.6,286047003.3,N
1561424195.4,286047005.6,N
1561424215.2,286047002.9,N
1561424235.1,286047005.3,Y
1561424236.0,286047005.3,P
1561424255.8,286047002.1,N
1561424275.6,286047001.5,N
1561424295.5,286047002.0,N
1561424315.3,286047002.7,N
1561424335.1,286047002.7,N
1561424355.9,286047002.1,N
1561424375.7,286047001.9,N
1561424395.5,286047002.3,N
